When you browse on this site, cookies collect data to enhance your experience and personalize the content and advertising you see.
Visit our Privacy Policy to learn more. By continuing to use the site, you agree to this use of cookies and data.
  • en France
  • Liste des pays
  • À 7 jours
  • Température de l'eau
  • Carte satellitaire
  • Carte météo
  • Widgets météo
  • user-avatar
    Se connecter

    Météo par heure à Kakanj

    Ce jour, 25 Mai, Samedi

    Heure Température Précipitation Vent Pression Humidité
    00:00 +11°C° 0 mm 1 m/s 721 mmHg 92%
    01:00 +11°C° 0 mm 1 m/s 720 mmHg 92%
    02:00 +10°C° 0 mm 1 m/s 720 mmHg 92%
    03:00 +10°C° 0 mm 1 m/s 721 mmHg 92%
    04:00 +10°C° 0 mm 1 m/s 721 mmHg 92%
    05:00 +12°C° 0 mm 1 m/s 721 mmHg 85%
    06:00 +14°C° 0 mm 1 m/s 722 mmHg 78%
    07:00 +18°C° 0 mm 1 m/s 722 mmHg 69%
    08:00 +19°C° 0 mm 1 m/s 722 mmHg 60%
    09:00 +21°C° 0 mm 1 m/s 723 mmHg 52%
    10:00 +23°C° 0 mm 1 m/s 723 mmHg 43%
    11:00 +24°C° 0 mm 1 m/s 723 mmHg 42%
    12:00 +24°C° 0 mm 1 m/s 723 mmHg 41%
    13:00 +25°C° 0 mm 1 m/s 723 mmHg 40%
    14:00 +24°C° 0 mm 1 m/s 722 mmHg 42%
    15:00 +24°C° 0 mm 1 m/s 722 mmHg 45%
    16:00 +24°C° 0 mm 1 m/s 722 mmHg 47%
    17:00 +22°C° 0 mm 1 m/s 722 mmHg 57%
    18:00 +19°C° 0 mm 1 m/s 722 mmHg 67%
    19:00 +15°C° 0 mm 0 m/s 721 mmHg 77%
    20:00 +15°C° 0 mm 1 m/s 722 mmHg 81%
    21:00 +14°C° 0 mm 1 m/s 722 mmHg 85%
    22:00 +13°C° 0 mm 1 m/s 722 mmHg 89%
    23:00 +13°C° 0 mm 1 m/s 722 mmHg 91%

    Demain, 26 Mai, Dimanche

    Heure Température Précipitation Vent Pression Humidité
    00:00 +13°C° 0 mm 1 m/s 722 mmHg 92%
    01:00 +13°C° 0 mm 1 m/s 722 mmHg 94%
    02:00 +13°C° 0 mm 1 m/s 722 mmHg 94%
    03:00 +13°C° 0 mm 1 m/s 722 mmHg 94%
    04:00 +13°C° 0 mm 1 m/s 722 mmHg 94%
    05:00 +14°C° 0 mm 1 m/s 722 mmHg 87%
    06:00 +16°C° 0 mm 1 m/s 722 mmHg 79%
    07:00 +19°C° 0 mm 1 m/s 722 mmHg 72%
    08:00 +21°C° 0 mm 1 m/s 723 mmHg 63%
    09:00 +23°C° 0 mm 1 m/s 723 mmHg 54%
    10:00 +25°C° 0 mm 1 m/s 723 mmHg 45%
    11:00 +26°C° 0 mm 1 m/s 723 mmHg 44%
    12:00 +26°C° 0 mm 1 m/s 723 mmHg 43%
    13:00 +26°C° 0 mm 1 m/s 723 mmHg 42%
    14:00 +26°C° 0 mm 1 m/s 722 mmHg 44%
    15:00 +26°C° 0 mm 1 m/s 722 mmHg 47%
    16:00 +26°C° 0 mm 1 m/s 722 mmHg 49%
    17:00 +23°C° 0 mm 1 m/s 722 mmHg 58%
    18:00 +21°C° 0 mm 1 m/s 722 mmHg 67%
    19:00 +19°C° 0 mm 1 m/s 721 mmHg 76%
    20:00 +19°C° 0.1 mm 1 m/s 722 mmHg 80%
    21:00 +18°C° 0.1 mm 1 m/s 722 mmHg 83%
    22:00 +16°C° 0.1 mm 1 m/s 722 mmHg 86%
    23:00 +16°C° 0 mm 1 m/s 722 mmHg 87%

    Après-demain, 27 Mai, Lundi

    Heure Température Précipitation Vent Pression Humidité
    00:00 +15°C° 0 mm 1 m/s 721 mmHg 88%
    01:00 +15°C° 0 mm 1 m/s 721 mmHg 89%
    02:00 +15°C° 0 mm 1 m/s 721 mmHg 89%
    03:00 +15°C° 0 mm 1 m/s 720 mmHg 89%
    04:00 +15°C° 0 mm 1 m/s 720 mmHg 89%
    05:00 +16°C° 0 mm 1 m/s 720 mmHg 84%
    06:00 +19°C° 0 mm 1 m/s 720 mmHg 79%
    07:00 +21°C° 0 mm 1 m/s 721 mmHg 74%
    08:00 +21°C° 0.1 mm 1 m/s 721 mmHg 73%
    09:00 +22°C° 0.1 mm 1 m/s 721 mmHg 73%
    10:00 +22°C° 0.1 mm 1 m/s 721 mmHg 73%
    11:00 +22°C° 0.4 mm 1 m/s 721 mmHg 73%
    12:00 +21°C° 0.4 mm 2 m/s 721 mmHg 74%
    13:00 +21°C° 0.4 mm 2 m/s 721 mmHg 75%
    14:00 +22°C° 0.2 mm 1 m/s 720 mmHg 75%
    15:00 +22°C° 0.2 mm 1 m/s 720 mmHg 75%
    16:00 +22°C° 0.2 mm 1 m/s 719 mmHg 76%
    17:00 +21°C° 0 mm 1 m/s 719 mmHg 80%
    18:00 +20°C° 0 mm 1 m/s 719 mmHg 84%
    19:00 +17°C° 0 mm 0 m/s 718 mmHg 88%
    20:00 +18°C° 0 mm 1 m/s 718 mmHg 90%
    21:00 +16°C° 0 mm 1 m/s 718 mmHg 92%
    22:00 +15°C° 0 mm 1 m/s 718 mmHg 94%
    23:00 +14°C° 0 mm 1 m/s 718 mmHg 94%

    28 Mai, Mardi

    Heure Température Précipitation Vent Pression Humidité
    00:00 +14°C° 0 mm 1 m/s 717 mmHg 94%
    01:00 +14°C° 0 mm 1 m/s 717 mmHg 93%
    02:00 +14°C° 0.1 mm 1 m/s 716 mmHg 93%
    03:00 +14°C° 0.1 mm 1 m/s 716 mmHg 92%
    04:00 +14°C° 0.1 mm 1 m/s 716 mmHg 91%
    05:00 +15°C° 0.1 mm 2 m/s 716 mmHg 88%
    06:00 +17°C° 0.1 mm 2 m/s 716 mmHg 84%
    07:00 +18°C° 0.1 mm 2 m/s 716 mmHg 80%
    08:00 +19°C° 0 mm 3 m/s 716 mmHg 73%
    09:00 +20°C° 0 mm 4 m/s 716 mmHg 66%
    10:00 +21°C° 0 mm 4 m/s 716 mmHg 59%
    11:00 +21°C° 0.1 mm 4 m/s 716 mmHg 62%
    12:00 +21°C° 0.1 mm 4 m/s 716 mmHg 64%
    13:00 +20°C° 0.1 mm 4 m/s 715 mmHg 66%
    14:00 +21°C° 0 mm 4 m/s 715 mmHg 65%
    15:00 +21°C° 0 mm 4 m/s 715 mmHg 63%
    16:00 +21°C° 0 mm 5 m/s 715 mmHg 61%
    17:00 +20°C° 0 mm 4 m/s 715 mmHg 68%
    18:00 +18°C° 0 mm 3 m/s 715 mmHg 76%
    19:00 +17°C° 0 mm 2 m/s 715 mmHg 83%
    20:00 +16°C° 0 mm 2 m/s 715 mmHg 87%
    21:00 +15°C° 0 mm 2 m/s 715 mmHg 91%
    22:00 +14°C° 0 mm 2 m/s 715 mmHg 95%
    23:00 +14°C° 0 mm 2 m/s 716 mmHg 95%

    29 Mai, Mercredi

    Heure Température Précipitation Vent Pression Humidité
    00:00 +14°C° 0 mm 2 m/s 716 mmHg 96%
    01:00 +14°C° 0 mm 2 m/s 716 mmHg 96%
    02:00 +14°C° 0.1 mm 2 m/s 716 mmHg 96%
    03:00 +14°C° 0.1 mm 2 m/s 716 mmHg 96%
    04:00 +14°C° 0.1 mm 1 m/s 716 mmHg 95%
    05:00 +15°C° 0 mm 2 m/s 716 mmHg 90%
    06:00 +16°C° 0 mm 2 m/s 717 mmHg 85%
    07:00 +18°C° 0 mm 2 m/s 717 mmHg 79%
    08:00 +19°C° 0 mm 3 m/s 717 mmHg 74%
    09:00 +20°C° 0 mm 4 m/s 718 mmHg 69%
    10:00 +20°C° 0 mm 5 m/s 718 mmHg 64%
    11:00 +20°C° 0.1 mm 5 m/s 718 mmHg 64%
    12:00 +20°C° 0.1 mm 4 m/s 719 mmHg 64%
    13:00 +19°C° 0.1 mm 4 m/s 719 mmHg 64%
    14:00 +19°C° 0.1 mm 4 m/s 719 mmHg 63%
    15:00 +19°C° 0.1 mm 4 m/s 720 mmHg 62%
    16:00 +19°C° 0.1 mm 3 m/s 720 mmHg 60%
    17:00 +18°C° 0.2 mm 2 m/s 720 mmHg 70%
    18:00 +16°C° 0.2 mm 1 m/s 721 mmHg 79%
    19:00 +13°C° 0.2 mm 0 m/s 721 mmHg 88%
    20:00 +12°C° 0 mm 0 m/s 721 mmHg 91%
    21:00 +11°C° 0 mm 0 m/s 722 mmHg 93%
    22:00 +10°C° 0 mm 0 m/s 722 mmHg 96%
    23:00 +10°C° 0 mm 0 m/s 722 mmHg 96%

    30 Mai, Jeudi

    Heure Température Précipitation Vent Pression Humidité
    00:00 +10°C° 0 mm 0 m/s 723 mmHg 97%
    01:00 +10°C° 0 mm 0 m/s 723 mmHg 97%
    02:00 +11°C° 0 mm 1 m/s 723 mmHg 97%
    03:00 +11°C° 0 mm 1 m/s 723 mmHg 97%
    04:00 +11°C° 0 mm 1 m/s 723 mmHg 97%
    05:00 +12°C° 0.1 mm 1 m/s 724 mmHg 95%
    06:00 +12°C° 0.1 mm 1 m/s 724 mmHg 94%
    07:00 +13°C° 0.1 mm 1 m/s 724 mmHg 92%
    08:00 +13°C° 0.1 mm 1 m/s 724 mmHg 87%
    09:00 +14°C° 0.1 mm 1 m/s 725 mmHg 82%
    10:00 +15°C° 0.1 mm 2 m/s 725 mmHg 77%
    11:00 +15°C° 0.1 mm 2 m/s 725 mmHg 75%
    12:00 +16°C° 0.1 mm 2 m/s 725 mmHg 73%
    13:00 +16°C° 0.1 mm 2 m/s 725 mmHg 71%
    14:00 +16°C° 0 mm 2 m/s 725 mmHg 70%
    15:00 +16°C° 0 mm 3 m/s 725 mmHg 69%
    16:00 +16°C° 0 mm 3 m/s 725 mmHg 69%
    17:00 +15°C° 0 mm 2 m/s 725 mmHg 75%
    18:00 +13°C° 0 mm 2 m/s 725 mmHg 81%
    19:00 +12°C° 0 mm 1 m/s 725 mmHg 87%
    20:00 +11°C° 0 mm 1 m/s 725 mmHg 90%
    21:00 +10°C° 0 mm 1 m/s 725 mmHg 93%
    22:00 +9°C° 0 mm 1 m/s 725 mmHg 96%
    23:00 +9°C° 0 mm 1 m/s 725 mmHg 96%
    Voir plus